When you browse on this site, cookies collect data to enhance your experience and personalize the content and advertising you see.
Visit our Privacy Policy to learn more. By continuing to use the site, you agree to this use of cookies and data.
  • In Österreich
  • Länderverzeichnis
  • Für 7 Tage
  • Wassertemperatur
  • Satellitenkarten
  • Wetterkarte
  • News
  • Widgets
  • user-avatar
    Anmelden

    Stündliche Wetter Уэйкфилд

    Heute, 13 Dezember, Donnerstag

    Zeit Temperatur Niederschläge Wind Luftdruck Luftfeuchtigkeit
    00:00 0°C° 0 mm 5 m/S 757 mmHg 79%
    01:00 0°C° 0 mm 5 m/S 756 mmHg 80%
    02:00 +1°C° 0 mm 5 m/S 756 mmHg 81%
    03:00 +1°C° 0 mm 5 m/S 756 mmHg 82%
    04:00 +1°C° 0 mm 6 m/S 756 mmHg 82%
    05:00 +1°C° 0 mm 6 m/S 756 mmHg 82%
    06:00 +1°C° 0 mm 6 m/S 755 mmHg 81%
    07:00 +1°C° 0 mm 6 m/S 756 mmHg 80%
    08:00 +1°C° 0 mm 6 m/S 756 mmHg 79%
    09:00 +1°C° 0 mm 5 m/S 756 mmHg 77%
    10:00 +1°C° 0 mm 6 m/S 757 mmHg 76%
    11:00 +2°C° 0 mm 6 m/S 757 mmHg 75%
    12:00 +2°C° 0 mm 6 m/S 757 mmHg 74%
    13:00 +2°C° 0 mm 6 m/S 757 mmHg 74%
    14:00 +2°C° 0 mm 5 m/S 757 mmHg 75%
    15:00 +2°C° 0 mm 5 m/S 757 mmHg 75%
    16:00 +3°C° 0 mm 4 m/S 757 mmHg 77%
    17:00 +1°C° 0 mm 4 m/S 758 mmHg 79%
    18:00 +1°C° 0 mm 4 m/S 758 mmHg 81%
    19:00 0°C° 0 mm 4 m/S 759 mmHg 82%
    20:00 +1°C° 0 mm 3 m/S 759 mmHg 83%
    21:00 +1°C° 0 mm 3 m/S 759 mmHg 84%
    22:00 0°C° 0 mm 3 m/S 760 mmHg 85%
    23:00 +1°C° 0 mm 2 m/S 760 mmHg 86%

    Morgen, 14 Dezember, Freitag

    Zeit Temperatur Niederschläge Wind Luftdruck Luftfeuchtigkeit
    00:00 +2°C° 0 mm 1 m/S 761 mmHg 87%
    01:00 +1°C° 0 mm 2 m/S 760 mmHg 87%
    02:00 +1°C° 0 mm 2 m/S 760 mmHg 87%
    03:00 +1°C° 0 mm 2 m/S 760 mmHg 87%
    04:00 +1°C° 0 mm 2 m/S 760 mmHg 87%
    05:00 +1°C° 0 mm 2 m/S 760 mmHg 87%
    06:00 -1°C° 0 mm 2 m/S 760 mmHg 88%
    07:00 +1°C° 0 mm 2 m/S 761 mmHg 87%
    08:00 +2°C° 0 mm 1 m/S 761 mmHg 87%
    09:00 +2°C° 0 mm 1 m/S 761 mmHg 86%
    10:00 +2°C° 0 mm 2 m/S 761 mmHg 81%
    11:00 +2°C° 0 mm 3 m/S 761 mmHg 76%
    12:00 +1°C° 0 mm 4 m/S 761 mmHg 71%
    13:00 +1°C° 0 mm 4 m/S 761 mmHg 72%
    14:00 +2°C° 0 mm 3 m/S 760 mmHg 73%
    15:00 +2°C° 0 mm 3 m/S 760 mmHg 74%
    16:00 +1°C° 0 mm 3 m/S 760 mmHg 77%
    17:00 0°C° 0 mm 3 m/S 760 mmHg 79%
    18:00 0°C° 0 mm 3 m/S 760 mmHg 81%
    19:00 0°C° 0 mm 3 m/S 760 mmHg 81%
    20:00 0°C° 0 mm 3 m/S 760 mmHg 82%
    21:00 0°C° 0 mm 3 m/S 760 mmHg 83%
    22:00 -1°C° 0 mm 4 m/S 759 mmHg 82%
    23:00 -1°C° 0 mm 4 m/S 759 mmHg 82%

    übermorgen, 15 Dezember, Samstag

    Zeit Temperatur Niederschläge Wind Luftdruck Luftfeuchtigkeit
    00:00 -1°C° 0 mm 4 m/S 759 mmHg 81%
    01:00 -1°C° 0 mm 4 m/S 759 mmHg 81%
    02:00 -1°C° 0 mm 4 m/S 758 mmHg 81%
    03:00 -1°C° 0 mm 4 m/S 758 mmHg 81%
    04:00 -1°C° 0 mm 5 m/S 757 mmHg 80%
    05:00 -1°C° 0 mm 5 m/S 757 mmHg 78%
    06:00 -2°C° 0 mm 6 m/S 756 mmHg 77%
    07:00 -2°C° 0 mm 6 m/S 756 mmHg 76%
    08:00 -2°C° 0 mm 6 m/S 755 mmHg 74%
    09:00 -2°C° 0 mm 7 m/S 755 mmHg 73%
    10:00 -1°C° 0 mm 7 m/S 754 mmHg 71%
    11:00 -1°C° 0 mm 8 m/S 753 mmHg 68%
    12:00 0°C° 0 mm 8 m/S 752 mmHg 66%
    13:00 0°C° 0.4 mm 8 m/S 751 mmHg 68%
    14:00 -1°C° 0.4 mm 8 m/S 750 mmHg 71%
    15:00 -1°C° 0.4 mm 8 m/S 749 mmHg 73%
    16:00 -1°C° 0.4 mm 8 m/S 748 mmHg 76%
    17:00 -1°C° 0.4 mm 9 m/S 747 mmHg 79%
    18:00 -1°C° 0.4 mm 9 m/S 746 mmHg 81%
    19:00 0°C° 1.5 mm 9 m/S 744 mmHg 84%
    20:00 0°C° 1.5 mm 10 m/S 743 mmHg 86%
    21:00 +1°C° 1.5 mm 10 m/S 741 mmHg 88%
    22:00 +2°C° 1.4 mm 10 m/S 739 mmHg 89%
    23:00 +3°C° 1.4 mm 10 m/S 737 mmHg 90%

    16 Dezember, Sonntag

    Zeit Temperatur Niederschläge Wind Luftdruck Luftfeuchtigkeit
    00:00 +5°C° 1.4 mm 10 m/S 735 mmHg 91%
    01:00 +5°C° 0.2 mm 9 m/S 734 mmHg 89%
    02:00 +6°C° 0.2 mm 9 m/S 733 mmHg 87%
    03:00 +7°C° 0.2 mm 9 m/S 732 mmHg 84%
    04:00 +6°C° 0.4 mm 10 m/S 732 mmHg 82%
    05:00 +6°C° 0.4 mm 11 m/S 733 mmHg 79%
    06:00 +4°C° 0.4 mm 12 m/S 733 mmHg 76%
    07:00 +4°C° 0.3 mm 12 m/S 735 mmHg 74%
    08:00 +4°C° 0.3 mm 11 m/S 736 mmHg 72%
    09:00 +4°C° 0.3 mm 11 m/S 738 mmHg 70%
    10:00 +5°C° 0.1 mm 10 m/S 739 mmHg 69%
    11:00 +5°C° 0.1 mm 10 m/S 740 mmHg 68%
    12:00 +5°C° 0.1 mm 9 m/S 742 mmHg 67%
    13:00 +5°C° 0 mm 8 m/S 743 mmHg 68%
    14:00 +5°C° 0 mm 7 m/S 744 mmHg 70%
    15:00 +6°C° 0 mm 5 m/S 744 mmHg 71%
    16:00 +5°C° 0 mm 5 m/S 745 mmHg 75%
    17:00 +4°C° 0 mm 4 m/S 745 mmHg 79%
    18:00 +4°C° 0 mm 4 m/S 746 mmHg 83%
    19:00 +3°C° 0 mm 3 m/S 746 mmHg 85%
    20:00 +3°C° 0 mm 3 m/S 747 mmHg 87%
    21:00 +4°C° 0 mm 2 m/S 747 mmHg 90%
    22:00 +4°C° 0 mm 2 m/S 748 mmHg 91%
    23:00 +3°C° 0 mm 2 m/S 748 mmHg 91%

    17 Dezember, Montag

    Zeit Temperatur Niederschläge Wind Luftdruck Luftfeuchtigkeit
    00:00 +3°C° 0 mm 2 m/S 748 mmHg 92%
    01:00 +3°C° 0 mm 2 m/S 749 mmHg 91%
    02:00 +3°C° 0 mm 2 m/S 749 mmHg 91%
    03:00 +3°C° 0 mm 2 m/S 749 mmHg 90%
    04:00 +2°C° 0 mm 2 m/S 749 mmHg 90%
    05:00 +2°C° 0 mm 2 m/S 750 mmHg 90%
    06:00 +2°C° 0 mm 2 m/S 750 mmHg 90%
    07:00 +2°C° 0 mm 2 m/S 751 mmHg 89%
    08:00 +2°C° 0 mm 2 m/S 751 mmHg 89%
    09:00 +2°C° 0 mm 2 m/S 752 mmHg 89%
    10:00 +3°C° 0 mm 2 m/S 752 mmHg 87%
    11:00 +4°C° 0 mm 2 m/S 752 mmHg 84%
    12:00 +5°C° 0 mm 2 m/S 752 mmHg 82%
    13:00 +5°C° 0 mm 2 m/S 752 mmHg 83%
    14:00 +5°C° 0 mm 2 m/S 752 mmHg 85%
    15:00 +3°C° 0 mm 3 m/S 752 mmHg 87%
    16:00 +3°C° 0 mm 3 m/S 752 mmHg 88%
    17:00 +3°C° 0 mm 4 m/S 751 mmHg 89%
    18:00 +3°C° 0 mm 4 m/S 751 mmHg 90%
    19:00 +3°C° 0.1 mm 5 m/S 751 mmHg 90%
    20:00 +3°C° 0.1 mm 6 m/S 750 mmHg 90%
    21:00 +3°C° 0.1 mm 7 m/S 749 mmHg 89%
    22:00 +4°C° 0.5 mm 7 m/S 749 mmHg 89%
    23:00 +5°C° 0.5 mm 8 m/S 748 mmHg 89%

    18 Dezember, Dienstag

    Zeit Temperatur Niederschläge Wind Luftdruck Luftfeuchtigkeit
    00:00 +6°C° 0.5 mm 8 m/S 747 mmHg 89%
    01:00 +6°C° 0.4 mm 8 m/S 746 mmHg 88%
    02:00 +7°C° 0.4 mm 8 m/S 745 mmHg 88%
    03:00 +7°C° 0.4 mm 9 m/S 744 mmHg 87%
    04:00 +8°C° 0.1 mm 9 m/S 743 mmHg 87%
    05:00 +8°C° 0.1 mm 9 m/S 743 mmHg 86%
    06:00 +8°C° 0.1 mm 9 m/S 742 mmHg 85%
    07:00 +8°C° 0.4 mm 10 m/S 741 mmHg 84%
    08:00 +8°C° 0.4 mm 10 m/S 740 mmHg 83%
    09:00 +8°C° 0.4 mm 10 m/S 740 mmHg 82%
    10:00 +7°C° 1.5 mm 10 m/S 739 mmHg 83%
    11:00 +7°C° 1.5 mm 10 m/S 739 mmHg 83%
    12:00 +7°C° 1.5 mm 10 m/S 739 mmHg 83%
    13:00 +6°C° 1.2 mm 8 m/S 738 mmHg 85%
    14:00 +7°C° 1.2 mm 6 m/S 738 mmHg 87%
    15:00 +6°C° 1.2 mm 4 m/S 738 mmHg 89%
    16:00 +7°C° 0 mm 3 m/S 738 mmHg 89%
    17:00 +5°C° 0 mm 3 m/S 738 mmHg 90%
    18:00 +5°C° 0 mm 3 m/S 738 mmHg 90%
    19:00 +5°C° 0 mm 3 m/S 738 mmHg 90%
    20:00 +4°C° 0 mm 3 m/S 739 mmHg 89%
    21:00 +4°C° 0 mm 3 m/S 739 mmHg 89%
    22:00 +4°C° 0 mm 4 m/S 739 mmHg 89%
    23:00 +4°C° 0 mm 4 m/S 739 mmHg 89%
    Mehr zeigen